RH
100 100 95 100 100 100 99 96 89 80 74 76 75 76 71 84 73 66 66 65 80 78 73 70 71 100 100 93 87 78 70 58 55 55 52 46 50 51 71 74 74 68 64 71 82 78 65
100 100 100 99 97 97 98 85 80 82 96 88 78 73 74 69 68 72 74 72 75 85 78 87 87 86 98 100 93 99 100 100 92 82 71 62 84 81 86 91 86 73 59 62 61 58 55
96 100 100 97 89 88 85 81 83 88 86 88 87 83 84 85 90 90 88 85 93 85 88 96 100 100 94 86 93 95 86 79 74 74 96 100 83 75 57 58 65 66 63 62 65 62 59
89 98 100 91 97 95 86 79 79 85 96 93 94 95 94 93 99 100 100 100 99 97 87 76 62 56 67 80 77 71 68 67 78 90 93 98 87 80 60 60 63 61 62 63 70 72 69
98 98 99 97 93 92 90 85 91 97 97 93 82 72 74 70 69 68 68 70 62 63 56 52 58 57 59 64 68 66 68 71 74 73 75 80 78 73 60 54 54 56 64 68 67 58 56
100 100 100 100 100 98 97 100 99 84 77 76 69 67 72 66 54 43 32 27 25 24 24 24 23 23 24 28 31 33 33 33 34 34 35 41 49 52 47 38 41 50 55 52 44 48 46
73 75 80 78 77 73 72 69 66 64 57 34 22 22 24 23 24 27 26 28 29 34 32 34 34 32 36 33 34 36 32 31 32 30 34 36 37 36 34 32 32 32 30 32 34 34 36
85 84 82 65 47 34 33 28 22 19 18 21 21 21 25 25 26 31 32 28 28 40 56 52 31 33 48 45 42 52 52 39 42 43 40 40 45 45 44 40 36 35 36 35 34 33 34
28 23 24 24 24 21 19 20 21 21 27 21 29 26 24 25 30 28 28 51 30 36 46 59 60 45 40 54 54 44 41 40 42 40 38 41 48 53 39 37 37 39 37 36 34 38 34
19 20 22 24 22 22 21 21 20 23 36 30 30 45 25 28 28 34 38 41 51 49 40 59 84 69 72 81 66 60 67 52 44 46 48 49 49 42 60 58 43 42 37 43 43 41 47
19 20 18 20 20 22 20 21 28 30 45 31 30 36 59 40 37 39 52 58 73 48 45 73 80 72 71 75 82 76 83 68 52 50 48 47 39 45 50 91 76 72 69 55 53 51 49
41 34 32 27 24 26 28 29 26 48 52 49 42 38 42 57 39 44 47 67 70 93 93 87 88 87 74 78 78 87 88 70 58 49 42 35 32 32 39 39 44 62 80 82 72 74 78
77 67 43 47 39 34 43 40 31 29 33 43 41 45 53 50 58 60 70 73 80 100 82 95 85 63 89 95 88 87 80 61 44 38 39 36 33 28 26 28 32 43 49 83 81 83 88
98 70 47 44 58 51 44 36 32 37 38 37 44 53 64 57 68 60 82 82 100 100 96 97 68 66 71 86 83 76 52 37 38 29 26 25 22 22 22 24 26 30 40 46 52 97 91
100 89 57 47 70 74 50 37 42 39 37 52 50 56 72 68 75 78 79 100 100 99 100 96 64 53 93 99 66 46 37 36 36 30 23 18 16 17 19 23 28 29 40 40 39 76 85
48 46 41 76 83 80 84 45 42 38 44 82 79 82 86 76 71 96 100 100 100 88 56 75 81 84 85 76 60 44 35 32 30 25 21 17 14 16 16 19 23 30 38 38 37 41 79
63 71 69 95 100 93 65 66 54 44 54 99 100 100 80 90 99 93 100 88 59 46 70 98 95 84 86 53 52 39 33 30 28 24 18 15 15 15 13 15 20 24 31 36 38 42 52
70 94 100 100 96 89 70 49 57 75 98 100 88 84 100 100 92 100 76 42 38 53 76 82 99 88 70 61 40 39 38 28 29 24 17 12 11 11 12 14 17 22 30 34 42 54 44
98 94 99 92 93 88 88 91 53 52 81 100 98 91 86 76 72 60 41 40 59 92 100 100 94 77 53 41 40 33 26 28 31 25 16 14 11 12 16 17 20 19 26 30 35 43 45
98 94 92 86 78 65 61 59 50 88 100 100 74 83 73 49 46 40 50 71 96 100 100 96 77 56 50 42 36 27 27 28 25 22 22 19 18 13 16 18 18 25 33 41 34 46 48
91 88 91 99 91 86 84 79 97 100 100 100 77 55 46 55 46 57 81 100 100 99 75 66 66 55 43 36 32 28 26 24 20 20 22 22 19 20 20 19 20 26 39 38 32 38 35
100 100 100 98 99 100 100 100 94 85 83 56 54 47 59 52 54 81 84 83 76 64 80 75 48 41 35 31 26 27 23 20 19 20 17 17 22 20 23 23 20 27 38 33 44 32 25
99 100 87 88 68 84 99 89 74 66 56 57 52 60 48 52 83 85 83 87 79 89 70 53 44 37 35 28 26 21 19 18 18 17 17 17 17 20 26 26 26 33 36 31 30 26 32
80 84 86 78 84 82 68 66 66 84 76 66 64 51 63 95 92 90 74 67 68 57 49 49 41 30 28 26 22 18 17 17 16 18 17 17 17 17 21 24 29 37 31 35 32 25 28
57 57 60 64 76 67 56 63 89 88 83 66 52 44 47 61 80 69 78 67 52 52 50 41 30 27 24 19 15 15 16 17 18 16 17 17 17 17 18 21 29 29 31 33 30 27 28
85 74 74 62 52 54 80 81 47 48 57 49 45 49 56 83 95 67 41 44 45 43 38 30 27 23 18 13 13 13 14 18 18 17 17 18 18 18 18 19 21 27 27 30 25 24 35
69 68 66 71 68 52 48 64 67 49 45 49 56 59 76 54 40 40 49 50 47 33 23 19 18 16 14 14 12 12 13 14 15 15 17 18 17 18 17 16 18 23 31 28 22 20 28
74 75 74 63 61 62 50 48 48 51 52 55 54 50 40 41 46 49 49 43 32 21 15 13 13 13 13 11 9 9 8 9 10 11 13 14 15 15 15 15 17 18 24 23 20 22 28
91 78 66 64 54 48 54 52 54 66 55 47 39 36 47 46 58 50 44 28 19 15 13 14 12 10 8 6 4 4 4 5 5 7 8 11 11 12 13 17 15 18 20 18 19 21 23
Wind_Speed
24 25 24 25 29 31 28 30 32 34 36 37 35 37 37 35 38 40 39 38 38 41 42 41 41 41 41 41 41 43 44 45 45 47 48 48 52 55 55 54 55 56 58 60 61 62 64
27 27 27 29 30 32 34 37 38 39 38 37 38 39 39 42 42 42 42 45 43 45 48 44 46 44 47 48 46 45 45 48 52 53 55 60 57 55 56 58 59 62 61 62 63 64 63
32 31 33 35 36 37 40 39 40 40 42 43 42 43 44 46 45 46 47 50 50 51 49 48 50 51 49 52 54 55 56 58 60 58 57 59 59 60 60 62 63 65 65 64 64 64 64
38 37 37 38 39 40 42 43 45 45 46 47 46 47 47 48 48 50 51 51 52 53 55 55 53 53 55 56 57 55 55 55 57 58 60 61 61 62 59 59 60 63 66 66 64 65 64
39 40 40 42 43 44 44 45 47 47 47 46 47 49 49 49 50 52 51 52 51 50 51 52 53 54 52 53 54 55 56 58 58 58 60 62 64 65 65 66 66 66 65 66 67 68 66
39 41 42 42 42 42 43 43 43 45 46 47 47 47 46 47 47 45 41 37 36 34 33 37 39 38 40 43 45 47 47 46 47 50 53 54 56 58 60 60 62 63 63 64 62 61 62
42 43 44 44 45 45 43 42 41 39 36 32 28 27 28 28 28 26 27 22 17 34 33 34 28 30 36 33 39 41 43 47 49 48 49 51 53 54 56 57 57 58 60 60 60 60 59
35 36 36 36 33 31 28 17 11 10 17 20 24 26 24 25 26 18 21 24 33 42 52 45 37 46 40 45 52 51 52 53 48 49 52 54 57 55 57 58 57 57 55 58 59 58 55
9 12 13 16 13 9 8 10 9 16 21 26 30 30 27 32 35 33 28 34 41 45 48 57 55 56 57 56 59 58 58 64 69 71 64 58 58 58 59 58 55 55 56 55 51 54 56
13 14 11 13 11 13 14 16 20 26 32 37 39 41 43 44 44 40 40 45 47 50 52 60 58 62 64 64 63 63 61 70 77 75 72 68 68 63 61 61 59 56 58 54 50 46 47
18 26 24 21 27 28 31 32 34 35 36 43 44 45 48 47 53 51 50 50 50 54 58 60 63 65 70 72 71 71 69 75 86 81 75 68 66 67 65 67 68 64 63 60 54 48 46
31 32 35 33 32 33 36 39 43 42 44 45 46 47 50 51 53 54 52 54 57 61 63 65 69 74 76 77 77 77 77 86 94 90 81 70 66 66 68 68 71 69 68 65 60 54 51
36 35 38 37 37 38 41 45 50 52 52 53 52 53 54 56 59 57 57 58 57 64 70 71 74 77 81 86 84 86 87 94 95 90 83 77 76 75 73 71 71 72 71 69 65 60 55
39 43 45 44 43 45 45 49 53 55 58 59 58 57 58 62 62 62 60 63 64 66 73 75 82 85 84 87 86 91 95 91 92 89 83 78 71 72 70 73 71 70 70 70 67 65 60
42 48 50 49 49 49 51 54 55 57 60 64 67 63 62 63 65 65 65 66 69 74 78 80 86 84 87 90 95 101 95 91 90 86 82 77 71 68 69 71 72 71 71 70 67 64 61
50 56 55 55 52 56 57 58 61 62 62 66 69 68 68 69 69 70 71 74 77 83 89 90 89 90 90 93 105 111 100 94 88 82 76 72 71 67 68 68 69 71 72 71 70 65 61
58 60 59 60 60 63 61 62 67 65 69 72 70 68 71 71 70 71 75 82 88 94 91 89 91 92 98 105 109 110 103 97 89 80 75 71 68 61 66 66 68 68 70 72 71 66 63
62 62 61 63 67 69 68 70 69 71 71 67 64 70 74 76 74 75 84 94 95 90 92 90 93 100 109 113 111 107 105 98 89 77 73 71 65 60 59 64 67 69 68 71 69 67 66
66 66 65 69 72 73 74 73 73 76 71 61 71 76 75 80 85 91 95 97 93 92 88 96 106 111 112 114 115 106 96 87 82 77 72 68 64 57 54 58 66 68 67 68 69 68 65
68 69 71 72 75 76 74 74 77 73 67 74 80 80 86 93 95 101 96 95 94 93 100 107 113 115 117 118 115 105 96 87 74 70 71 68 63 59 51 56 62 63 65 68 68 66 65
67 68 70 72 76 77 77 79 75 73 77 81 86 93 100 96 100 98 96 97 99 104 109 113 114 120 120 115 111 104 92 80 70 65 64 67 60 59 53 50 57 59 62 67 65 66 67
69 70 74 76 77 79 78 75 81 86 85 96 96 98 96 102 98 98 99 102 108 110 112 116 122 124 117 114 102 93 82 75 68 66 66 61 58 59 52 52 53 54 60 65 67 69 62
76 77 79 81 84 86 85 88 90 94 96 99 96 98 103 101 101 104 105 113 115 117 119 125 123 117 119 110 98 85 79 73 71 68 64 62 59 59 52 55 53 49 56 61 65 64 64
79 79 84 87 87 88 92 93 100 98 97 98 99 105 103 105 108 113 117 116 120 122 126 121 123 118 109 100 93 86 80 76 71 69 65 60 62 62 55 58 52 58 56 58 61 61 63
81 84 85 89 91 94 98 97 97 95 100 100 106 105 104 108 113 115 118 122 126 125 123 124 119 110 103 98 92 84 77 74 73 70 68 63 62 63 61 57 56 58 59 57 58 57 59
79 82 85 92 95 94 94 98 101 102 104 107 104 106 107 109 114 120 117 123 121 125 123 115 108 105 100 93 89 81 74 75 76 74 69 67 66 64 63 62 61 60 61 59 57 57 58
86 91 94 92 93 97 101 102 106 106 106 106 106 108 108 114 118 121 127 124 129 122 108 102 99 98 99 91 86 80 76 73 74 77 72 69 71 67 69 66 63 59 63 63 61 53 53
91 90 96 100 100 102 104 105 107 109 107 112 111 112 117 117 123 131 131 129 119 108 103 101 96 94 90 86 80 75 73 72 71 71 72 70 72 73 70 69 68 63 62 64 59 55 55
93 97 100 100 105 105 106 109 111 110 114 114 119 119 120 125 128 131 129 116 108 105 100 98 92 87 82 78 72 67 61 65 64 65 64 67 69 72 71 74 66 64 64 65 63 62 60
Wind_Direction
264 264 270 269 271 276 278 282 287 292 295 297 296 296 297 297 297 298 301 299 293 292 295 292 297 290 285 285 280 281 280 278 278 277 277 280 284 279 279 278 279 281 283 283 285 286 289
259 260 267 271 275 277 278 283 288 290 292 294 297 296 296 299 298 297 298 299 298 293 298 292 294 285 284 280 282 279 278 277 279 278 282 285 287 283 281 278 279 281 285 283 283 286 289
258 260 264 270 274 278 281 286 287 288 289 292 295 295 295 295 295 294 296 296 294 293 292 290 288 288 283 282 282 280 279 279 282 284 285 283 285 284 283 282 279 282 284 283 286 287 289
260 262 266 271 275 279 282 288 290 291 290 291 291 292 291 292 290 289 290 291 290 290 289 290 289 286 284 284 284 285 285 284 283 283 283 283 284 286 286 283 282 283 285 286 286 287 289
264 268 273 277 281 283 286 288 289 288 289 290 290 292 291 291 290 289 290 291 292 293 294 292 289 288 286 286 285 285 285 284 284 286 286 286 286 286 285 285 285 285 285 285 286 287 288
263 268 273 278 281 284 286 286 289 295 296 295 296 295 295 295 296 299 302 307 310 310 307 303 299 299 297 296 293 290 288 289 290 289 289 289 289 287 287 288 287 286 285 286 285 286 287
271 275 278 280 283 287 289 292 293 295 298 304 311 312 312 314 323 318 317 338 347 351 338 341 344 344 339 328 329 326 318 310 308 305 302 302 301 298 295 292 291 291 290 288 290 290 290
282 285 287 289 291 294 295 295 296 330 343 346 343 332 328 332 328 327 334 344 340 345 336 340 343 336 333 334 332 327 330 330 321 311 307 301 298 294 294 297 296 295 292 291 289 289 290
289 308 294 296 287 278 265 312 309 319 328 333 339 340 340 334 337 337 323 336 343 338 336 329 335 333 332 329 327 326 327 326 321 318 311 306 301 296 292 293 293 293 292 292 294 292 290
321 296 269 337 327 301 326 299 318 333 331 337 330 334 336 337 339 338 338 335 334 330 332 326 324 324 323 322 319 317 317 318 318 312 309 305 299 291 292 293 292 296 293 294 297 297 296
318 333 329 320 327 329 329 331 324 329 330 329 326 326 319 326 328 329 328 325 319 328 328 324 318 317 317 317 315 313 311 311 313 311 306 300 295 291 288 287 289 291 292 293 293 299 301
322 320 326 323 322 322 321 319 323 316 314 317 314 321 318 312 322 320 321 316 316 314 314 315 317 315 314 313 309 309 306 308 312 310 305 297 295 291 283 282 284 284 285 287 289 292 297
312 313 315 314 311 315 314 318 319 317 315 313 314 314 311 313 309 314 312 309 311 312 313 312 313 314 310 307 309 310 309 310 307 303 300 293 291 288 283 279 278 278 280 280 282 286 289
306 306 309 313 310 308 311 312 316 315 312 308 309 310 309 313 311 310 310 310 306 303 308 309 311 311 309 305 305 308 309 308 307 305 298 291 287 283 277 274 273 272 273 274 275 277 282
299 298 305 305 303 303 304 310 310 312 314 307 306 307 308 309 308 306 308 303 306 306 306 304 310 309 304 305 307 309 309 309 306 306 300 291 286 278 273 269 268 267 268 270 272 271 274
291 297 297 299 300 300 298 302 308 305 308 309 304 303 307 307 308 310 307 305 305 307 308 305 305 307 305 305 308 312 312 311 309 304 297 290 283 278 272 267 264 262 262 266 269 269 270
292 293 290 295 295 298 297 302 305 303 303 305 305 305 308 306 308 308 307 308 307 309 306 303 304 304 306 311 311 311 312 312 311 306 296 289 281 274 272 267 262 261 260 262 264 266 265
288 289 289 290 292 294 296 300 303 304 304 303 302 308 308 307 307 304 304 309 310 309 305 305 304 305 308 309 311 311 312 311 310 302 294 288 281 275 269 266 263 259 257 259 260 260 262
283 287 287 292 293 296 298 300 305 304 304 302 307 306 306 307 304 304 308 310 309 306 302 301 304 307 308 310 309 311 311 310 306 299 294 288 285 279 272 265 260 260 259 258 257 257 259
286 290 293 293 296 297 299 302 304 303 301 304 309 306 306 307 306 310 310 308 306 301 301 304 305 306 309 309 309 311 310 307 301 295 291 286 283 278 270 262 260 258 259 258 256 258 260
288 291 293 296 298 299 301 302 301 300 302 304 306 306 306 306 309 308 306 304 301 302 303 304 306 307 308 306 308 310 306 303 299 292 286 285 283 279 274 264 261 257 256 258 258 257 255
288 291 293 296 297 297 296 297 299 299 298 302 304 306 307 308 308 305 303 303 302 305 306 306 307 307 306 305 308 307 304 300 295 290 286 279 278 277 271 267 262 259 254 253 254 253 253
288 291 291 293 294 294 297 300 301 301 301 303 304 304 308 308 306 305 304 305 307 307 306 307 305 306 306 306 306 304 301 296 292 288 282 280 276 273 269 266 262 258 254 253 252 253 253
285 289 291 291 292 294 298 299 301 302 304 303 306 309 309 307 306 307 308 307 307 307 307 307 305 305 305 304 304 301 297 293 288 285 282 276 273 268 265 263 262 256 253 251 253 252 252
286 286 287 290 291 293 297 299 300 301 301 304 307 308 308 308 306 306 307 308 308 308 307 306 306 305 304 303 300 296 293 290 287 282 279 275 270 268 263 258 255 257 254 251 250 252 252
283 286 288 292 296 298 298 298 301 302 303 304 306 308 307 307 307 306 307 308 309 308 306 306 305 304 302 300 297 295 291 286 283 281 277 274 268 263 261 257 251 250 252 250 249 248 249
286 290 295 296 298 299 301 303 302 305 307 307 307 308 308 307 308 309 310 309 309 307 306 304 303 300 300 297 295 292 288 283 278 276 273 270 267 262 257 255 252 246 248 249 248 246 249
291 294 295 297 300 301 304 306 305 307 307 309 307 309 310 310 310 312 311 310 308 307 306 304 303 301 298 296 294 290 285 282 276 272 269 266 263 261 260 256 249 247 246 248 251 245 240
291 295 298 298 302 305 307 305 306 306 308 309 309 312 312 313 312 310 310 308 308 307 306 304 303 302 300 297 294 290 286 278 273 269 265 262 260 260 255 255 252 247 244 244 243 241 239